TimeEDT,TemperatureF,Dew PointF,Humidity,Sea Level PressureIn,VisibilityMPH,Wind Direction,Wind SpeedMPH,Gust SpeedMPH,PrecipitationIn,Events,Conditions,WindDirDegrees,DateUTC
12:53 AM,66.9,62.1,84,29.94,10.0,South,9.2,-,N/A,,Overcast,180,2013-10-04 04:53:00
1:53 AM,66.0,62.1,87,29.93,10.0,South,9.2,-,0.01,,Partly Cloudy,180,2013-10-04 05:53:00
2:53 AM,66.9,63.0,87,29.96,10.0,SSW,9.2,-,0.00,,Mostly Cloudy,200,2013-10-04 06:53:00
3:53 AM,66.0,63.0,90,29.96,10.0,South,4.6,-,N/A,,Partly Cloudy,190,2013-10-04 07:53:00
4:53 AM,64.0,62.1,93,29.97,10.0,SSW,4.6,-,N/A,,Mostly Cloudy,200,2013-10-04 08:53:00
5:53 AM,64.0,62.1,93,29.97,10.0,SSW,4.6,-,N/A,,Partly Cloudy,200,2013-10-04 09:53:00
6:49 AM,64.4,62.6,94,30.00,10.0,NW,10.4,-,N/A,Thunderstorm,Thunderstorm,320,2013-10-04 10:49:00
6:53 AM,64.9,63.0,93,30.00,10.0,Calm,Calm,-,N/A,Thunderstorm,Thunderstorm,0,2013-10-04 10:53:00
7:53 AM,64.9,63.0,93,30.01,10.0,Calm,Calm,-,0.00,Thunderstorm,Thunderstorm,0,2013-10-04 11:53:00
8:21 AM,66.2,62.6,88,30.01,8.0,Variable,3.5,-,0.24,,Overcast,0,2013-10-04 12:21:00
8:53 AM,66.9,63.0,87,30.01,6.0,Calm,Calm,-,0.24,,Overcast,0,2013-10-04 12:53:00
9:53 AM,68.0,64.0,87,30.01,10.0,South,6.9,-,N/A,,Overcast,170,2013-10-04 13:53:00
10:53 AM,70.0,64.0,81,30.02,10.0,South,5.8,-,N/A,,Mostly Cloudy,180,2013-10-04 14:53:00
11:53 AM,71.1,64.0,78,30.02,10.0,SW,4.6,-,N/A,,Overcast,220,2013-10-04 15:53:00
12:53 PM,73.9,66.0,76,30.02,10.0,WSW,4.6,-,N/A,,Overcast,240,2013-10-04 16:53:00
1:53 PM,75.9,66.0,71,30.01,10.0,Calm,Calm,-,N/A,,Overcast,0,2013-10-04 17:53:00
2:53 PM,77.0,66.0,69,29.98,10.0,South,3.5,-,N/A,,Mostly Cloudy,190,2013-10-04 18:53:00
3:53 PM,78.1,68.0,71,29.99,10.0,SSW,6.9,-,N/A,,Mostly Cloudy,200,2013-10-04 19:53:00
4:53 PM,78.1,66.9,68,29.99,10.0,Calm,Calm,-,N/A,,Mostly Cloudy,0,2013-10-04 20:53:00
5:53 PM,77.0,68.0,74,29.98,10.0,SSW,3.5,-,N/A,,Scattered Clouds,210,2013-10-04 21:53:00
6:53 PM,75.9,68.0,76,29.98,10.0,Calm,Calm,-,N/A,,Clear,0,2013-10-04 22:53:00
7:53 PM,73.0,68.0,84,29.99,10.0,Calm,Calm,-,N/A,,Clear,0,2013-10-04 23:53:00
8:53 PM,71.1,68.0,90,29.99,9.0,SE,3.5,-,N/A,,Clear,140,2013-10-05 00:53:00
10:53 PM,70.0,66.9,90,-9999,8.0,SE,3.5,-,N/A,,Mostly Cloudy,130,2013-10-05 02:53:00
11:18 PM,71.6,66.2,83,-9999,10.0,SSW,3.5,-,N/A,Thunderstorm,Mostly Cloudy,200,2013-10-05 03:18:00
11:44 PM,69.8,66.2,88,-9999,2.0,SSE,10.4,20.7,0.29,Rain-Thunderstorm,Heavy Rain,160,2013-10-05 03:44:00
11:50 PM,69.8,66.2,88,-9999,3.0,SSE,9.2,20.7,0.32,Rain,Heavy Rain,160,2013-10-05 03:50:00
11:53 PM,70.0,66.9,90,-9999,4.0,SSE,5.8,-,0.33,Rain-Thunderstorm,Heavy Rain,150,2013-10-05 03:53:00